Location: Cahas Mountain Overlook
(37.0833°N, 80.1000°W)
Time: 18:03:47
(UTC-04:00)

FO-99 - Visible Passes

Search period start: 31 March 2023 00:00
Search period end: 10 April 2023 00:00
Orbit: 422 x 443 km, 97.1° (Epoch: 31 March)

Date Brightness Start Highest point End Pass type
(mag) Time Alt. Az. Time Alt. Az. Time Alt. Az.
31 Mar ? 20:44:07 10° SSW 20:47:11 34° W 20:50:16 10° NNW visible
01 Apr ? 20:03:31 10° SSE 20:06:46 53° ENE 20:10:01 10° N visible
02 Apr ? 20:55:54 10° SSW 20:58:38 23° W 21:01:22 10° NW visible
03 Apr ? 20:14:37 10° SSE 20:17:55 82° E 20:21:15 10° N visible
04 Apr ? 21:07:26 10° SW 21:09:37 17° W 21:11:50 10° NW visible
05 Apr ? 20:25:20 10° S 20:28:37 67° W 20:31:55 10° NNW visible
06 Apr ? 21:18:51 10° WSW 21:20:09 12° W 21:21:28 10° WNW visible
07 Apr ? 20:35:42 10° S 20:38:53 45° W 20:42:03 10° NNW visible
09 Apr ? 20:45:42 10° SSW 20:48:40 31° W 20:51:38 10° NNW visible
